Regional Weather Roundup
Issued by NWS

Home | Current Version | Previous Version | Graphics & Text | Print | Product List | Glossary On
Versions: 1 2 3 4 5 6 7 8 9 10 11 12 13 14 15 16 17 18 19 20 21 22 23 24 25 26 27 28 29 30 31 32 33 34 35 36 37 38 39 40 41 42 43 44 45 46 47 48 49 50
000
ASUS45 KBOU 250510
RWRCO

WEATHER ROUNDUP FOR COLORADO
NATIONAL WEATHER SERVICE DENVER/BOULDER CO
1100 PM MDT SAT SEP 24 2016

NOTE: "FAIR" INDICATES FEW OR NO CLOUDS BELOW 12000 FEET WITH NO
SIGNIFICANT WEATHER AND/OR OBSTRUCTIONS TO VISIBILITY.

COZ001>005-013-030-031-250600-
...NORTHWEST COLORADO...

CITY           SKY/WX    TMP DP  RH WIND       PRES   REMARKS
CRAIG          CLOUDY    44  41  89 CALM      30.40R
HAYDEN         MOCLDY    43  36  75 NE5       30.41R
MEEKER         CLOUDY    45  42  89 CALM      30.40R
MOUNT WERNER   NOT AVBL
STEAMBOAT SPGS CLOUDY    40  39  95 CALM      30.41R
WALDEN           N/A     36  32  87 N7        30.43R
$$

COZ006>008-011-250600-
...WEST CENTRAL VALLEYS...

CITY           SKY/WX    TMP DP  RH WIND       PRES   REMARKS
GRAND JUNCTION MOCLDY    51  42  71 NE8       30.32R
MONTROSE       CLOUDY    51  41  68 CALM      30.36R
EAGLE          CLOUDY    46  39  76 W3        30.40R
RIFLE          CLOUDY    49  45  86 E5        30.37R
DELTA          NOT AVBL
NUCLA          CLOUDY    52  36  54 NE12      30.36R
$$

COZ017>023-064>068-250600-
...SOUTHWEST COLORADO...

CITY           SKY/WX    TMP DP  RH WIND       PRES   REMARKS
DURANGO        FAIR      44  32  62 N3        30.27R
CORTEZ         FAIR      48  37  65 NE6       30.29R
PAGOSA SPRINGS FAIR      38  32  77 CALM      30.32R
TELLURIDE      MOCLDY    42  29  59 CALM      30.41S
WOLF CREEK PAS FAIR      27  23  86 MISG      30.48S
$$

COZ009-010-012-014-032>034-037-058>063-250600-
...CENTRAL COLORADO...

CITY           SKY/WX    TMP DP  RH WIND       PRES   REMARKS
ASPEN          CLOUDY    42  37  82 SW3       30.40S
BUENA VISTA    CLOUDY    46  28  49 NW13G20   30.38R
COPPER MTN     SNOW      32  28  86 MISG      30.51R VSB 1/4
BERTHOUD PASS  CLOUDY    23  10  58 N26G36    30.50R WCI   6
COTTONWOOD PAS CLOUDY    41  28  60 NW5       30.44R
GUNNISON       CLOUDY    41  35  79 N6        30.40R
KREMMLING      CLOUDY    41  32  70 CALM      30.41S
LEADVILLE      CLOUDY    34  27  75 NW6       30.44R WCI  29
MONARCH PASS     N/A     28  27  93 NW3       30.59R
SALIDA         FAIR      46  29  52 W3        30.44R
SUNLIGHT       FOG       32  32 100 MISG      30.51S VSB 1/4
WILKERSON PASS FAIR      32  23  69 N9        30.49R WCI  24
$$

COZ069>075-250600-
...SAN LUIS VALLEY/SANGRE DE CRISTO MOUNTAINS...

CITY           SKY/WX    TMP DP  RH WIND       PRES   REMARKS
ALAMOSA        FAIR      41  29  62 N7        30.33R
LA VETA PASS   FAIR      37  25  60 MISG      30.42R
SAGUACHE       NOT AVBL
$$

COZ035-036-038>040-250600-
...NORTHERN COLORADO FRONT RANGE...

CITY           SKY/WX    TMP DP  RH WIND       PRES   REMARKS
DENVER INTL AP FAIR      49  33  54 N5        30.28R
DMNS CITY PARK   N/A     52  33  49 NE3G9     30.28R
AURORA         PTCLDY    48  33  56 N5        30.30R
FRONT RANGE AP NOT AVBL
ERIE MUNI ARPT CLOUDY    53  33  47 CALM      30.27R
BOULDER MUN AP CLOUDY    54  34  47 E5        30.27R
CENTENNIAL     FAIR      50  31  48 E5        30.29R
BROOMFIELD     NOT AVBL
FORT COLLINS   CLOUDY    54  36  50 NW10      30.28R
LONGMONT       CLOUDY    56  36  46 SW3       30.28R
$$

COZ041-046-047-076>085-087-088-250600-
...PIKES PEAK/PALMER DIVIDE AND SOUTHERN FOOTHILLS...

CITY           SKY/WX    TMP DP  RH WIND       PRES   REMARKS
COLO. SPRINGS  FAIR      52  27  38 NW10      30.29R
A. F. ACADEMY  FAIR      44  25  46 N10       30.29R
SCHRIEVER AFB  NOT AVBL
ELLICOTT       NOT AVBL
FALCON         FAIR      47  27  46 N10       30.32R
FORT CARSON    FAIR      51  26  37 N13       30.25R
LIMON          FAIR      50  35  56 N15       30.26R
MONUMENT HILL  FAIR      41  30  65 NE6       30.33R
TRINIDAD       FAIR      51  26  37 NW8       30.24R
$$

COZ042>045-048>051-090-091-250600-
...NORTHEAST COLORADO...

CITY           SKY/WX    TMP DP  RH WIND       PRES   REMARKS
GREELEY ARPT   CLOUDY    52  36  54 N18G24    30.27R
AKRON          FAIR      47  37  68 N12       30.25R
BURLINGTON     FAIR      57  39  51 N14       30.20R
WRAY           NOT AVBL
STERLING       FAIR      46  37  71 NW3       30.23R
HOLYOKE        FAIR      54  41  62 NW10      30.20R
FORT MORGAN    MOCLDY    51  35  53 N8        30.27R
$$

COZ086-089-092>099-250600-
...SOUTHEAST COLORADO...

CITY           SKY/WX    TMP DP  RH WIND       PRES   REMARKS
PUEBLO         FAIR      58  26  29 NW12      30.21R
LA JUNTA       FAIR      60  28  29 N12       30.15R
LAMAR          FAIR      51  37  58 SE5       30.09R
SPRINGFIELD    NOT AVBL
$$



USA.gov is the U.S. government's official web portal to all federal, state and local government web resources and services.